Time,TemperatureF,DewpointF,PressureIn,WindDirection,WindDirectionDegrees,WindSpeedMPH,WindSpeedGustMPH,Humidity,HourlyPrecipIn,Conditions,Clouds,dailyrainin,SoftwareType,DateUTC
2013-02-04 00:00:00,31.0,27.0,29.83,West,267,5.0,12.0,83,-99.99,,,-99.99,,2013-02-04 05:00:00,
2013-02-04 00:22:00,31.0,27.0,29.83,West,267,5.0,12.0,83,-99.99,,,-99.99,,2013-02-04 05:22:00,
2013-02-04 00:33:00,31.0,27.0,29.83,West,267,5.0,12.0,83,-99.99,,,-99.99,,2013-02-04 05:33:00,
2013-02-04 00:42:00,31.0,27.0,29.83,West,267,5.0,12.0,83,-99.99,,,-99.99,,2013-02-04 05:42:00,
2013-02-04 00:52:00,31.0,27.0,29.83,West,267,5.0,12.0,83,-99.99,,,-99.99,,2013-02-04 05:52:00,
2013-02-04 01:00:00,30.0,19.0,29.85,SSW,210,5.0,31.0,65,-99.99,,,-99.99,,2013-02-04 06:00:00,
2013-02-04 01:21:00,30.0,19.0,29.85,SSW,210,5.0,31.0,65,-99.99,,,-99.99,,2013-02-04 06:21:00,
2013-02-04 01:32:00,30.0,19.0,29.85,SSW,210,5.0,31.0,65,-99.99,,,-99.99,,2013-02-04 06:32:00,
2013-02-04 01:42:00,30.0,19.0,29.85,SSW,210,5.0,31.0,65,-99.99,,,-99.99,,2013-02-04 06:42:00,
2013-02-04 01:52:00,30.0,19.0,29.85,SSW,210,5.0,31.0,65,-99.99,,,-99.99,,2013-02-04 06:52:00,
2013-02-04 02:00:00,28.0,16.0,29.88,SE,128,8.0,22.0,62,-99.99,,,-99.99,,2013-02-04 07:00:00,
2013-02-04 02:22:00,28.0,16.0,29.88,SE,128,8.0,22.0,62,-99.99,,,-99.99,,2013-02-04 07:22:00,
2013-02-04 02:32:00,28.0,16.0,29.88,SE,128,8.0,22.0,62,-99.99,,,-99.99,,2013-02-04 07:32:00,
2013-02-04 02:42:00,28.0,16.0,29.88,SE,128,8.0,22.0,62,-99.99,,,-99.99,,2013-02-04 07:42:00,
2013-02-04 02:52:00,28.0,16.0,29.88,SE,128,8.0,22.0,62,-99.99,,,-99.99,,2013-02-04 07:52:00,
2013-02-04 03:00:00,26.0,11.0,29.91,SSE,160,6.0,22.0,53,-99.99,,,-99.99,,2013-02-04 08:00:00,
2013-02-04 03:21:00,26.0,11.0,29.91,SSE,160,6.0,22.0,53,-99.99,,,-99.99,,2013-02-04 08:21:00,
2013-02-04 03:32:00,26.0,11.0,29.91,SSE,160,6.0,22.0,53,-99.99,,,-99.99,,2013-02-04 08:32:00,
2013-02-04 03:42:00,26.0,11.0,29.91,SSE,160,6.0,22.0,53,-99.99,,,-99.99,,2013-02-04 08:42:00,
2013-02-04 03:52:00,26.0,11.0,29.91,SSE,160,6.0,22.0,53,-99.99,,,-99.99,,2013-02-04 08:52:00,
2013-02-04 04:00:00,25.0,10.0,29.91,East,97,3.0,18.0,55,-99.99,,,-99.99,,2013-02-04 09:00:00,
2013-02-04 04:32:00,25.0,10.0,29.91,East,97,3.0,18.0,55,-99.99,,,-99.99,,2013-02-04 09:32:00,
2013-02-04 04:42:00,25.0,10.0,29.91,East,97,3.0,18.0,55,-99.99,,,-99.99,,2013-02-04 09:42:00,
2013-02-04 04:52:00,25.0,10.0,29.91,East,97,3.0,18.0,55,-99.99,,,-99.99,,2013-02-04 09:52:00,
2013-02-04 05:00:00,24.0,10.0,29.94,SSW,210,1.0,10.0,57,-99.99,,,-99.99,,2013-02-04 10:00:00,
2013-02-04 05:22:00,24.0,10.0,29.94,SSW,210,1.0,10.0,57,-99.99,,,-99.99,,2013-02-04 10:22:00,
2013-02-04 05:32:00,24.0,10.0,29.94,SSW,210,1.0,10.0,57,-99.99,,,-99.99,,2013-02-04 10:32:00,
2013-02-04 05:42:00,24.0,10.0,29.94,SSW,210,1.0,10.0,57,-99.99,,,-99.99,,2013-02-04 10:42:00,
2013-02-04 05:52:00,24.0,10.0,29.94,SSW,210,1.0,10.0,57,-99.99,,,-99.99,,2013-02-04 10:52:00,
2013-02-04 06:00:00,23.0,9.0,29.97,South,185,4.0,11.0,60,-99.99,,,-99.99,,2013-02-04 11:00:00,
2013-02-04 06:22:00,23.0,9.0,29.97,South,185,4.0,11.0,60,-99.99,,,-99.99,,2013-02-04 11:22:00,
2013-02-04 06:33:00,23.0,9.0,29.97,South,185,4.0,11.0,60,-99.99,,,-99.99,,2013-02-04 11:33:00,
2013-02-04 06:42:00,23.0,9.0,29.97,South,185,4.0,11.0,60,-99.99,,,-99.99,,2013-02-04 11:42:00,
2013-02-04 06:52:00,23.0,9.0,29.97,South,185,4.0,11.0,60,-99.99,,,-99.99,,2013-02-04 11:52:00,
2013-02-04 07:00:00,20.0,9.0,30.00,SSE,161,4.0,8.0,67,-99.99,,,-99.99,,2013-02-04 12:00:00,
2013-02-04 07:22:00,20.0,9.0,30.00,SSE,161,4.0,8.0,67,-99.99,,,-99.99,,2013-02-04 12:22:00,
2013-02-04 07:33:00,20.0,9.0,30.00,SSE,161,4.0,8.0,67,-99.99,,,-99.99,,2013-02-04 12:33:00,
2013-02-04 07:42:00,20.0,9.0,30.00,SSE,161,4.0,8.0,67,-99.99,,,-99.99,,2013-02-04 12:42:00,
2013-02-04 07:53:00,20.0,9.0,30.00,SSE,161,4.0,8.0,67,-99.99,,,-99.99,,2013-02-04 12:53:00,
2013-02-04 08:00:00,24.0,11.0,30.03,SE,125,2.0,12.0,58,-99.99,,,-99.99,,2013-02-04 13:00:00,
2013-02-04 08:22:00,24.0,11.0,30.03,SE,125,2.0,12.0,58,-99.99,,,-99.99,,2013-02-04 13:22:00,
2013-02-04 08:33:00,24.0,11.0,30.03,SE,125,2.0,12.0,58,-99.99,,,-99.99,,2013-02-04 13:33:00,
2013-02-04 08:42:00,24.0,11.0,30.03,SE,125,2.0,12.0,58,-99.99,,,-99.99,,2013-02-04 13:42:00,
2013-02-04 08:52:00,24.0,11.0,30.03,SE,125,2.0,12.0,58,-99.99,,,-99.99,,2013-02-04 13:52:00,
2013-02-04 09:00:00,27.0,11.0,30.06,ENE,72,2.0,10.0,51,-99.99,,,-99.99,,2013-02-04 14:00:00,
2013-02-04 09:23:00,27.0,11.0,30.06,ENE,72,2.0,10.0,51,-99.99,,,-99.99,,2013-02-04 14:23:00,
2013-02-04 09:33:00,27.0,11.0,30.06,ENE,72,2.0,10.0,51,-99.99,,,-99.99,,2013-02-04 14:33:00,
2013-02-04 09:42:00,27.0,11.0,30.06,ENE,72,2.0,10.0,51,-99.99,,,-99.99,,2013-02-04 14:42:00,
2013-02-04 09:52:00,27.0,11.0,30.06,ENE,72,2.0,10.0,51,-99.99,,,-99.99,,2013-02-04 14:52:00,
2013-02-04 10:00:00,28.0,8.0,30.06,SW,226,3.0,12.0,44,-99.99,,,-99.99,,2013-02-04 15:00:00,
2013-02-04 10:24:00,28.0,8.0,30.06,SW,226,3.0,12.0,44,-99.99,,,-99.99,,2013-02-04 15:24:00,
2013-02-04 10:33:00,28.0,8.0,30.06,SW,226,3.0,12.0,44,-99.99,,,-99.99,,2013-02-04 15:33:00,
2013-02-04 10:43:00,28.0,8.0,30.06,SW,226,3.0,12.0,44,-99.99,,,-99.99,,2013-02-04 15:43:00,
2013-02-04 10:53:00,28.0,8.0,30.06,SW,226,3.0,12.0,44,-99.99,,,-99.99,,2013-02-04 15:53:00,
2013-02-04 11:00:00,29.0,9.0,30.03,SW,222,0.0,16.0,44,-99.99,,,-99.99,,2013-02-04 16:00:00,
2013-02-04 11:23:00,29.0,9.0,30.03,SW,222,0.0,16.0,44,-99.99,,,-99.99,,2013-02-04 16:23:00,
2013-02-04 11:33:00,29.0,9.0,30.03,SW,222,0.0,16.0,44,-99.99,,,-99.99,,2013-02-04 16:33:00,
2013-02-04 11:43:00,29.0,9.0,30.03,SW,222,0.0,16.0,44,-99.99,,,-99.99,,2013-02-04 16:43:00,
2013-02-04 11:52:00,29.0,9.0,30.03,SW,222,0.0,16.0,44,-99.99,,,-99.99,,2013-02-04 16:52:00,
2013-02-04 12:00:00,29.0,10.0,30.00,ESE,108,1.0,18.0,46,-99.99,,,-99.99,,2013-02-04 17:00:00,
2013-02-04 12:21:00,29.0,10.0,30.00,ESE,108,1.0,18.0,46,-99.99,,,-99.99,,2013-02-04 17:21:00,
2013-02-04 12:32:00,29.0,10.0,30.00,ESE,108,1.0,18.0,46,-99.99,,,-99.99,,2013-02-04 17:32:00,
2013-02-04 12:42:00,29.0,10.0,30.00,ESE,108,1.0,18.0,46,-99.99,,,-99.99,,2013-02-04 17:42:00,
2013-02-04 12:52:00,29.0,10.0,30.00,ESE,108,1.0,18.0,46,-99.99,,,-99.99,,2013-02-04 17:52:00,
2013-02-04 13:00:00,29.0,10.0,30.00,SW,229,3.0,12.0,46,-99.99,,,-99.99,,2013-02-04 18:00:00,
2013-02-04 13:22:00,29.0,10.0,30.00,SW,229,3.0,12.0,46,-99.99,,,-99.99,,2013-02-04 18:22:00,
2013-02-04 13:33:00,29.0,10.0,30.00,SW,229,3.0,12.0,46,-99.99,,,-99.99,,2013-02-04 18:33:00,
2013-02-04 13:42:00,29.0,10.0,30.00,SW,229,3.0,12.0,46,-99.99,,,-99.99,,2013-02-04 18:42:00,
2013-02-04 13:52:00,29.0,10.0,30.00,SW,229,3.0,12.0,46,-99.99,,,-99.99,,2013-02-04 18:52:00,
2013-02-04 14:00:00,31.0,11.0,29.97,NW,306,1.0,13.0,43,-99.99,,,-99.99,,2013-02-04 19:00:00,
2013-02-04 14:22:00,31.0,11.0,29.97,NW,306,1.0,13.0,43,-99.99,,,-99.99,,2013-02-04 19:22:00,
2013-02-04 14:32:00,31.0,11.0,29.97,NW,306,1.0,13.0,43,-99.99,,,-99.99,,2013-02-04 19:32:00,
2013-02-04 14:42:00,31.0,11.0,29.97,NW,306,1.0,13.0,43,-99.99,,,-99.99,,2013-02-04 19:42:00,
2013-02-04 14:52:00,31.0,11.0,29.97,NW,306,1.0,13.0,43,-99.99,,,-99.99,,2013-02-04 19:52:00,
2013-02-04 15:00:00,30.0,12.0,29.97,SSE,160,1.0,18.0,47,-99.99,,,-99.99,,2013-02-04 20:00:00,
2013-02-04 15:22:00,30.0,12.0,29.97,SSE,160,1.0,18.0,47,-99.99,,,-99.99,,2013-02-04 20:22:00,
2013-02-04 15:32:00,30.0,12.0,29.97,SSE,160,1.0,18.0,47,-99.99,,,-99.99,,2013-02-04 20:32:00,
2013-02-04 15:42:00,30.0,12.0,29.97,SSE,160,1.0,18.0,47,-99.99,,,-99.99,,2013-02-04 20:42:00,
2013-02-04 15:52:00,30.0,12.0,29.97,SSE,160,1.0,18.0,47,-99.99,,,-99.99,,2013-02-04 20:52:00,
2013-02-04 16:00:00,30.0,13.0,29.97,SSW,194,3.0,15.0,49,-99.99,,,-99.99,,2013-02-04 21:00:00,
2013-02-04 16:23:00,30.0,13.0,29.97,SSW,194,3.0,15.0,49,-99.99,,,-99.99,,2013-02-04 21:23:00,
2013-02-04 16:32:00,30.0,13.0,29.97,SSW,194,3.0,15.0,49,-99.99,,,-99.99,,2013-02-04 21:32:00,
2013-02-04 16:43:00,30.0,13.0,29.97,SSW,194,3.0,15.0,49,-99.99,,,-99.99,,2013-02-04 21:43:00,
2013-02-04 16:52:00,30.0,13.0,29.97,SSW,194,3.0,15.0,49,-99.99,,,-99.99,,2013-02-04 21:52:00,
2013-02-04 17:00:00,31.0,15.0,29.97,ESE,122,0.0,9.0,52,-99.99,,,-99.99,,2013-02-04 22:00:00,
2013-02-04 17:22:00,31.0,15.0,29.97,ESE,122,0.0,9.0,52,-99.99,,,-99.99,,2013-02-04 22:22:00,
2013-02-04 17:33:00,31.0,15.0,29.97,ESE,122,0.0,9.0,52,-99.99,,,-99.99,,2013-02-04 22:33:00,
2013-02-04 17:42:00,31.0,15.0,29.97,ESE,122,0.0,9.0,52,-99.99,,,-99.99,,2013-02-04 22:42:00,
2013-02-04 17:52:00,31.0,15.0,29.97,ESE,122,0.0,9.0,52,-99.99,,,-99.99,,2013-02-04 22:52:00,
2013-02-04 18:00:00,29.0,15.0,29.97,ESE,108,3.0,11.0,55,-99.99,,,-99.99,,2013-02-04 23:00:00,
2013-02-04 18:22:00,29.0,15.0,29.97,ESE,108,3.0,11.0,55,-99.99,,,-99.99,,2013-02-04 23:22:00,
2013-02-04 18:32:00,29.0,15.0,29.97,ESE,108,3.0,11.0,55,-99.99,,,-99.99,,2013-02-04 23:32:00,
2013-02-04 18:42:00,29.0,15.0,29.97,ESE,108,3.0,11.0,55,-99.99,,,-99.99,,2013-02-04 23:42:00,
2013-02-04 18:52:00,29.0,15.0,29.97,ESE,108,3.0,11.0,55,-99.99,,,-99.99,,2013-02-04 23:52:00,
2013-02-04 19:00:00,26.0,15.0,29.97,ESE,120,0.0,8.0,66,-99.99,,,-99.99,,2013-02-05 00:00:00,
2013-02-04 19:22:00,26.0,15.0,29.97,ESE,120,0.0,8.0,66,-99.99,,,-99.99,,2013-02-05 00:22:00,
2013-02-04 19:32:00,26.0,15.0,29.97,ESE,120,0.0,8.0,66,-99.99,,,-99.99,,2013-02-05 00:32:00,
2013-02-04 19:42:00,26.0,15.0,29.97,ESE,120,0.0,8.0,66,-99.99,,,-99.99,,2013-02-05 00:42:00,
2013-02-04 19:52:00,26.0,15.0,29.97,ESE,120,0.0,8.0,66,-99.99,,,-99.99,,2013-02-05 00:52:00,
2013-02-04 20:00:00,27.0,18.0,29.97,ESE,120,0.0,3.0,72,-99.99,,,-99.99,,2013-02-05 01:00:00,
2013-02-04 20:22:00,27.0,18.0,29.97,ESE,120,0.0,3.0,72,-99.99,,,-99.99,,2013-02-05 01:22:00,
2013-02-04 20:33:00,27.0,18.0,29.97,ESE,120,0.0,3.0,72,-99.99,,,-99.99,,2013-02-05 01:33:00,
2013-02-04 20:42:00,27.0,18.0,29.97,ESE,120,0.0,3.0,72,-99.99,,,-99.99,,2013-02-05 01:42:00,
2013-02-04 20:52:00,27.0,18.0,29.97,ESE,120,0.0,3.0,72,-99.99,,,-99.99,,2013-02-05 01:52:00,
2013-02-04 21:00:00,29.0,18.0,29.97,ENE,74,3.0,6.0,64,-99.99,,,-99.99,,2013-02-05 02:00:00,
2013-02-04 21:22:00,29.0,18.0,29.97,ENE,74,3.0,6.0,64,-99.99,,,-99.99,,2013-02-05 02:22:00,
2013-02-04 21:32:00,29.0,18.0,29.97,ENE,74,3.0,6.0,64,-99.99,,,-99.99,,2013-02-05 02:32:00,
2013-02-04 21:42:00,29.0,18.0,29.97,ENE,74,3.0,6.0,64,-99.99,,,-99.99,,2013-02-05 02:42:00,
2013-02-04 21:52:00,29.0,18.0,29.97,ENE,74,3.0,6.0,64,-99.99,,,-99.99,,2013-02-05 02:52:00,
2013-02-04 22:00:00,29.0,19.0,29.97,ENE,71,0.0,3.0,67,-99.99,,,-99.99,,2013-02-05 03:00:00,
2013-02-04 22:22:00,29.0,19.0,29.97,ENE,71,0.0,3.0,67,-99.99,,,-99.99,,2013-02-05 03:22:00,
2013-02-04 22:32:00,29.0,19.0,29.97,ENE,71,0.0,3.0,67,-99.99,,,-99.99,,2013-02-05 03:32:00,
2013-02-04 22:42:00,29.0,19.0,29.97,ENE,71,0.0,3.0,67,-99.99,,,-99.99,,2013-02-05 03:42:00,
2013-02-04 22:52:00,29.0,19.0,29.97,ENE,71,0.0,3.0,67,-99.99,,,-99.99,,2013-02-05 03:52:00,
2013-02-04 23:00:00,30.0,21.0,29.94,ENE,74,0.0,5.0,71,-99.99,,,-99.99,,2013-02-05 04:00:00,
2013-02-04 23:22:00,30.0,21.0,29.94,ENE,74,0.0,5.0,71,-99.99,,,-99.99,,2013-02-05 04:22:00,
2013-02-04 23:32:00,30.0,21.0,29.94,ENE,74,0.0,5.0,71,-99.99,,,-99.99,,2013-02-05 04:32:00,
2013-02-04 23:42:00,30.0,21.0,29.94,ENE,74,0.0,5.0,71,-99.99,,,-99.99,,2013-02-05 04:42:00,
2013-02-04 23:52:00,30.0,21.0,29.94,ENE,74,0.0,5.0,71,-99.99,,,-99.99,,2013-02-05 04:52:00,